Theta_e
297 297 298 298 299 300 300 301 303 302 301 302 303 303 301 301 302 303 303 304 303 304 304 307 308 311 313 312 315 316 313 315 317 318 317 317 317 319 322 326 327 324 322 321
297 298 298 298 299 300 301 302 301 302 302 303 303 303 304 303 302 303 304 305 306 306 308 308 307 312 312 315 317 316 314 316 319 319 317 317 318 318 320 324 323 326 325 323
297 298 298 299 299 299 301 296 301 303 304 303 302 303 304 305 303 304 303 304 304 306 306 307 309 311 314 316 315 317 315 317 317 319 318 319 321 320 320 322 323 322 323 321
298 299 299 299 299 299 301 296 300 303 303 304 303 303 303 305 304 304 305 305 305 305 307 307 308 309 317 314 315 318 319 318 318 318 318 319 319 319 320 321 321 321 320 321
298 298 299 300 300 300 302 298 302 302 301 302 306 303 304 304 304 304 305 304 305 305 305 305 306 310 317 316 315 316 318 318 318 319 318 319 322 320 319 319 319 319 321 320
298 299 299 299 300 300 301 300 298 303 302 303 303 304 304 304 304 304 305 305 304 305 305 304 305 308 316 317 317 315 318 319 317 318 319 320 321 320 320 320 319 319 319 318
299 299 299 299 300 300 300 300 301 302 304 303 304 303 304 305 303 306 306 305 305 305 304 306 312 313 314 314 314 315 319 321 317 316 319 325 321 318 319 320 319 317 316 316
299 300 300 300 301 301 301 301 301 302 303 304 304 304 304 303 304 304 304 305 305 304 305 311 312 310 313 313 314 316 320 320 319 323 320 321 320 319 318 319 318 317 316 316
299 299 299 300 299 299 302 301 300 302 303 303 304 305 304 305 304 304 304 304 304 305 305 307 309 309 315 317 318 318 319 317 318 318 321 321 319 318 318 318 319 317 316 317
299 299 299 299 299 300 299 301 300 300 302 301 302 305 306 305 305 304 304 304 303 304 305 307 307 308 314 315 317 317 314 313 317 318 321 318 319 319 318 322 318 317 317 318
299 299 299 299 300 300 300 300 299 299 299 301 301 303 305 305 305 305 304 305 304 305 304 304 306 305 311 316 316 316 317 314 310 314 315 319 317 319 319 317 318 318 318 319
299 299 299 299 299 299 300 300 299 298 299 301 302 302 304 305 305 306 306 305 304 306 306 304 307 308 307 313 315 312 318 315 315 314 315 315 318 321 319 319 319 319 319 319
300 299 299 300 299 299 300 300 300 299 300 299 299 303 303 305 305 306 308 305 305 308 306 308 308 308 310 310 311 313 315 316 316 317 318 318 318 320 319 316 317 317 317 319
301 300 300 300 300 299 299 300 299 299 299 300 303 301 305 305 306 305 306 308 307 306 307 307 306 305 311 310 311 311 310 316 315 315 316 317 317 316 316 316 317 317 317 317
302 301 301 300 301 299 299 299 299 298 299 302 302 303 305 305 305 305 306 308 307 306 305 304 310 310 311 310 311 311 310 314 316 316 316 317 315 316 315 316 316 316 318 318
300 300 300 300 301 300 300 300 299 299 299 303 304 304 306 306 305 306 307 308 307 306 305 305 309 311 312 311 310 311 310 310 312 314 313 315 317 315 316 316 315 314 316 316
300 301 301 300 301 300 298 301 300 300 300 300 304 305 305 307 306 306 305 304 306 305 304 304 306 308 311 308 310 311 311 311 313 314 316 318 316 315 312 312 309 308 307 307
300 301 300 300 301 299 300 301 301 300 301 299 303 305 304 302 304 304 302 303 303 303 304 303 305 306 307 308 310 310 311 311 311 316 315 314 310 310 309 307 306 302 298 297
301 300 301 300 300 301 302 302 301 302 299 300 296 300 306 299 302 303 302 301 302 301 301 303 306 306 308 310 311 312 311 312 311 313 311 310 310 308 306 303 298 296 293 290
299 299 298 297 302 302 302 301 298 301 302 297 294 297 302 301 300 303 304 299 299 304 306 305 302 305 307 311 309 307 305 307 310 311 310 308 303 300 297 294 293 291 289 287
300 300 297 302 301 300 299 300 301 300 301 298 300 299 302 299 301 302 296 303 298 305 303 307 309 309 309 307 305 301 299 299 299 301 300 300 297 294 291 289 288 287 285 284
300 300 300 300 301 300 300 300 300 299 300 299 301 300 298 297 298 297 299 302 304 306 303 303 311 306 302 300 299 298 296 296 296 294 293 292 291 289 288 287 286 285 284 283
301 299 299 300 296 297 294 299 302 297 300 298 300 303 300 300 301 300 302 304 306 304 304 305 304 300 298 296 294 293 293 291 290 290 289 287 287 286 286 285 284 283 283 282
299 295 300 298 300 300 299 303 303 298 299 296 299 302 302 300 301 302 304 301 306 308 310 307 299 295 293 292 291 290 289 289 288 287 286 286 285 284 283 283 282 282 281 281
294 295 297 296 295 293 292 293 296 293 294 299 301 301 301 301 303 302 304 307 308 303 302 296 293 291 290 289 289 288 287 286 286 285 284 284 283 283 282 282 281 281 280 280
291 289 292 292 291 290 290 290 292 291 292 295 299 302 303 304 303 302 297 300 297 294 290 290 290 289 288 288 287 286 285 285 284 284 283 283 282 282 281 281 280 280 279 279
289 288 288 288 287 286 289 288 290 290 293 302 301 299 298 298 298 294 293 291 290 290 289 289 288 287 287 286 285 284 284 283 283 283 282 282 282 281 281 281 280 279 278 278
Wind_Speed
33 32 30 28 25 22 20 7 7 15 32 9 6 15 10 7 11 10 7 5 14 16 10 9 8 13 9 21 20 14 11 11 13 15 6 3 4 10 10 5 5 3 5 6
36 36 34 31 28 26 13 5 4 20 26 10 14 12 16 21 19 13 5 5 6 2 4 6 14 9 12 12 13 7 7 9 3 11 7 5 5 5 6 5 5 9 6 5
40 39 37 35 33 31 30 3 5 5 8 4 17 19 18 15 11 18 17 17 16 11 12 13 10 10 8 7 19 29 8 6 21 17 2 3 3 5 14 13 7 7 7 7
41 39 37 37 36 34 34 6 5 6 9 13 16 16 11 22 18 15 10 9 20 18 7 5 16 14 6 1 11 12 7 5 6 7 10 10 12 14 9 17 9 11 9 11
43 42 40 39 37 35 31 5 4 4 1 11 18 22 16 21 13 14 15 24 17 8 13 16 17 13 4 4 10 12 9 4 2 5 10 11 6 23 19 4 4 9 7 9
43 42 42 41 40 39 15 18 10 4 10 13 14 18 19 18 18 17 20 15 13 11 18 18 16 10 4 4 3 9 6 4 3 5 4 10 6 10 14 6 6 5 6 9
44 43 42 41 42 46 32 12 7 5 9 15 18 17 20 20 25 21 12 9 13 15 18 6 3 2 4 6 10 7 7 9 2 3 4 13 8 7 13 18 14 8 5 4
42 42 41 41 42 45 38 17 11 7 11 10 15 18 15 23 21 24 22 20 15 4 4 3 4 3 3 9 8 7 14 11 2 1 3 4 10 7 6 7 8 8 7 7
37 37 37 37 37 39 44 36 22 5 7 16 12 15 16 13 15 17 21 23 13 3 3 4 7 4 3 3 9 2 4 9 5 3 3 8 4 10 4 1 5 4 7 7
39 39 39 39 40 39 39 14 28 6 3 5 14 12 11 12 10 5 4 4 7 8 5 6 6 7 4 3 3 2 1 3 5 3 3 6 9 9 4 4 6 4 6 4
45 44 43 43 44 42 40 22 32 14 2 3 10 20 10 6 11 10 3 2 2 3 5 5 4 3 6 5 5 9 3 4 3 2 3 6 4 6 6 5 4 2 4 2
47 46 46 46 45 46 44 15 30 28 3 3 9 28 31 24 12 6 6 4 4 5 3 1 3 4 1 5 4 10 5 7 5 9 7 9 4 5 4 2 4 2 3 4
53 52 49 47 46 46 49 26 30 22 4 4 8 9 33 27 22 13 4 1 4 3 4 4 3 5 4 4 6 3 4 6 4 3 6 9 9 5 5 6 5 3 3 3
47 55 51 51 49 46 48 24 30 27 4 3 6 24 24 27 24 19 11 2 6 3 1 3 3 3 3 5 4 5 7 6 6 4 7 6 4 9 8 9 6 5 1 2
35 49 48 46 50 49 44 27 29 34 8 7 4 7 11 29 25 10 3 4 4 2 1 2 3 3 2 3 0 9 4 5 4 5 9 4 8 8 8 6 5 4 6 6
30 36 39 42 52 52 32 4 25 38 35 3 4 2 8 14 20 13 7 8 3 2 3 2 2 3 3 3 3 6 6 5 6 5 4 5 4 2 4 6 4 6 7 2
32 35 37 38 52 43 9 5 12 44 28 1 3 2 3 14 9 4 4 2 3 3 3 2 3 1 2 3 7 12 10 7 5 5 5 2 3 2 3 8 10 15 15 16
30 34 34 39 49 26 6 6 25 46 11 2 1 3 3 3 3 3 3 2 2 1 3 1 3 1 3 5 7 11 15 17 8 5 1 6 8 7 8 7 11 17 14 13
37 38 42 36 11 4 7 15 36 24 6 3 1 4 3 1 2 3 2 3 1 1 2 3 4 3 6 5 3 9 10 15 5 6 8 9 11 11 10 13 14 17 14 15
45 31 5 3 6 51 30 6 3 2 2 1 2 1 4 3 1 2 3 2 2 2 5 2 3 4 6 5 8 13 11 8 8 10 6 8 9 11 13 15 13 14 14 15
4 3 3 14 24 7 2 3 2 3 1 1 2 3 5 1 4 3 0 2 1 3 4 7 4 3 1 5 4 9 9 10 12 13 15 14 13 13 15 14 14 14 18 17
11 14 9 5 3 2 4 2 1 2 4 2 4 3 3 1 3 3 2 3 3 6 3 4 4 3 6 10 10 5 7 14 16 17 20 18 18 15 16 15 15 19 25 25
5 4 4 3 3 7 5 3 1 1 1 3 3 4 3 2 2 3 2 4 6 1 3 2 2 5 6 8 8 11 12 18 16 18 20 24 21 23 22 17 24 26 26 24
4 4 5 4 4 4 3 3 2 2 3 2 4 4 3 2 2 2 4 5 2 5 5 4 3 6 5 5 10 10 13 14 16 14 19 19 18 20 25 25 26 27 25 24
4 4 5 4 3 3 3 3 2 5 4 1 3 3 2 1 2 4 4 4 2 0 2 2 3 6 8 10 11 11 12 12 13 13 16 17 24 24 26 27 29 31 30 29
4 7 4 3 3 5 4 6 3 4 4 2 2 2 3 4 1 2 4 3 2 1 2 3 4 6 9 11 12 12 12 14 13 19 23 26 25 25 28 30 29 28 29 27
5 4 4 3 2 2 3 3 4 4 3 2 2 3 3 3 3 3 3 2 2 3 4 4 8 9 10 12 13 14 16 16 21 24 27 28 29 31 31 22 26 29 29 29
Wind_Direction
263 261 258 256 254 244 233 232 231 189 170 191 211 227 216 282 277 301 256 290 262 259 267 277 280 271 237 305 309 268 203 213 238 245 265 241 276 208 175 161 208 168 166 263
261 258 256 253 245 235 214 224 214 189 181 208 215 223 228 242 248 269 284 261 237 127 294 260 225 257 282 306 341 286 193 213 167 241 261 209 197 215 209 149 122 194 165 252
258 255 251 248 243 236 215 153 193 183 216 228 215 218 229 227 221 241 243 253 265 291 281 272 267 271 296 337 320 317 269 170 211 224 235 148 183 274 219 193 196 189 195 222
255 252 247 242 237 230 212 177 211 196 202 217 212 216 231 226 234 226 230 250 236 236 253 285 261 263 318 326 322 318 276 232 194 233 220 263 269 272 265 211 194 195 215 205
256 253 249 239 233 222 213 184 183 200 219 203 211 216 218 231 222 216 234 237 249 264 230 226 274 305 242 277 348 337 306 273 176 210 214 234 225 265 253 245 229 213 200 217
252 248 244 239 228 214 217 209 212 215 204 207 204 219 217 224 226 243 244 243 253 251 243 242 243 262 214 161 254 285 293 297 146 245 207 225 229 229 273 233 234 191 204 222
250 245 240 235 226 214 214 199 162 202 216 205 215 209 212 216 228 237 249 238 229 249 253 246 199 253 248 230 233 217 265 301 28 197 107 227 234 260 254 236 235 215 205 194
248 243 238 232 225 216 210 204 195 197 224 213 210 212 211 223 230 235 246 248 251 291 308 214 240 289 343 262 224 207 201 233 52 81 244 306 192 239 192 177 246 188 192 206
247 241 236 229 224 221 212 209 196 190 208 215 195 200 210 212 226 236 244 249 250 294 241 218 208 216 169 278 328 255 180 175 150 128 240 224 210 243 265 148 239 221 174 188
241 236 232 228 225 222 213 194 180 159 191 188 191 204 197 209 214 231 199 212 216 181 231 230 236 230 195 205 210 352 47 84 163 109 269 291 262 277 217 189 228 286 177 158
237 232 227 225 221 218 203 204 193 187 167 255 220 209 177 188 211 223 246 139 278 113 188 187 211 199 193 182 167 143 303 149 181 119 158 256 245 302 154 217 310 264 302 210
229 225 222 219 216 213 202 207 194 186 182 258 299 241 213 204 186 187 212 209 173 190 147 199 167 275 104 145 235 196 189 205 184 183 207 220 202 220 131 239 248 27 22 309
225 217 217 214 210 206 200 192 165 165 184 283 253 254 224 220 201 193 165 275 207 189 187 176 204 226 153 203 216 240 248 164 214 135 239 234 226 240 190 210 195 269 47 108
229 211 210 207 204 200 197 184 175 166 122 234 256 220 212 200 186 191 183 218 284 143 155 163 182 193 233 225 231 219 218 147 212 243 285 307 297 216 224 253 238 193 87 187
221 196 197 201 197 192 189 179 178 179 168 187 220 183 234 197 206 197 306 242 221 165 107 115 196 264 339 263 26 235 202 195 168 220 231 209 234 258 257 245 283 303 145 185
174 173 185 189 187 179 160 143 192 191 203 289 180 172 153 166 177 168 285 229 176 103 149 203 232 238 117 289 252 246 219 226 208 240 269 222 140 242 346 121 85 42 31 123
164 168 172 174 170 162 162 166 163 187 189 165 200 93 26 172 139 133 221 175 164 138 161 175 176 210 174 181 266 267 299 330 288 255 143 129 171 151 38 88 82 75 67 61
151 157 159 162 155 146 197 289 179 168 170 264 179 127 102 31 162 147 183 122 63 70 176 93 163 161 192 226 238 240 270 275 249 244 264 125 112 84 69 71 86 74 68 71
136 139 127 114 115 127 147 137 146 154 119 210 173 122 147 87 73 107 42 96 75 338 185 210 141 206 227 169 264 298 248 252 203 136 111 106 103 96 72 77 73 83 76 75
108 106 69 93 157 124 115 72 90 99 276 319 98 67 111 93 62 60 99 52 199 188 223 164 182 245 240 166 46 6 341 359 155 117 113 113 94 87 80 80 82 89 92 91
73 76 61 101 106 82 68 112 110 151 173 113 146 103 120 166 129 127 142 163 219 211 232 179 212 241 50 113 105 39 357 36 56 77 82 81 102 109 102 90 87 92 95 94
96 115 99 86 83 100 101 96 148 95 156 186 127 155 131 153 119 109 168 179 195 246 172 159 200 115 90 90 97 75 58 66 68 74 85 86 88 94 99 98 96 95 98 99
70 57 64 34 329 45 90 128 18 39 163 178 144 106 116 99 81 101 138 198 233 148 204 211 52 92 87 97 97 87 80 83 71 81 84 86 89 87 93 98 96 97 93 97
62 66 54 50 21 43 22 23 66 28 6 104 111 111 120 120 122 148 189 233 225 203 183 194 129 115 96 116 90 88 85 82 88 89 93 91 90 88 85 88 96 97 93 94
50 35 49 52 48 23 355 323 55 3 316 37 90 77 98 120 157 191 226 238 145 61 125 70 103 119 124 100 93 97 97 96 98 95 94 96 96 95 91 90 94 96 96 93
61 39 28 350 38 11 13 9 12 352 334 295 72 136 176 192 194 85 30 349 28 30 41 70 92 105 97 96 97 96 95 93 94 94 95 96 96 95 94 88 85 86 89 89
53 29 354 7 98 43 356 339 329 316 320 42 36 48 5 314 73 58 28 18 45 78 84 85 88 93 96 98 98 98 97 96 96 98 96 98 99 96 91 88 86 87 86 88